When you browse on this site, cookies collect data to enhance your experience and personalize the content and advertising you see.
Visit our Privacy Policy to learn more. By continuing to use the site, you agree to this use of cookies and data.
  • In Portugal
  • List of Countries
  • For 7 days
  • Water Temperature
  • Weather Map
  • Weather Widgets
  • user-avatar
    Login

    Hourly Weather Mecina

    Today, 28 January, Tuesday

    Time Temperature Precipitation Wind Pressure Humidity
    00:00 -1°C° 0 mm 2 mps 727 mmHg 82%
    01:00 -1°C° 0 mm 2 mps 726 mmHg 83%
    02:00 -1°C° 0 mm 2 mps 726 mmHg 83%
    03:00 -1°C° 0 mm 2 mps 725 mmHg 83%
    04:00 -1°C° 0 mm 2 mps 725 mmHg 83%
    05:00 -1°C° 0 mm 2 mps 724 mmHg 83%
    06:00 -1°C° 0 mm 3 mps 724 mmHg 83%
    07:00 -1°C° 0 mm 3 mps 724 mmHg 83%
    08:00 0°C° 0 mm 3 mps 723 mmHg 80%
    09:00 +1°C° 0 mm 3 mps 723 mmHg 77%
    10:00 +1°C° 0 mm 4 mps 723 mmHg 73%
    11:00 +2°C° 0 mm 3 mps 722 mmHg 74%
    12:00 +2°C° 0 mm 3 mps 722 mmHg 76%
    13:00 +4°C° 0 mm 2 mps 721 mmHg 77%
    14:00 +3°C° 0 mm 2 mps 720 mmHg 80%
    15:00 +2°C° 0 mm 2 mps 720 mmHg 82%
    16:00 +1°C° 0 mm 2 mps 719 mmHg 85%
    17:00 +1°C° 0 mm 2 mps 719 mmHg 86%
    18:00 +1°C° 0 mm 2 mps 719 mmHg 86%
    19:00 +1°C° 0 mm 2 mps 718 mmHg 87%
    20:00 +1°C° 0.5 mm 2 mps 718 mmHg 89%
    21:00 +1°C° 0.5 mm 2 mps 718 mmHg 92%
    22:00 +1°C° 0.5 mm 2 mps 718 mmHg 94%
    23:00 +1°C° 0 mm 2 mps 718 mmHg 91%

    Tomorrow, 29 January, Wednesday

    Time Temperature Precipitation Wind Pressure Humidity
    00:00 0°C° 0 mm 3 mps 718 mmHg 88%
    01:00 +1°C° 0 mm 3 mps 718 mmHg 86%
    02:00 0°C° 0 mm 3 mps 718 mmHg 85%
    03:00 0°C° 0 mm 3 mps 718 mmHg 84%
    04:00 -2°C° 0 mm 4 mps 718 mmHg 83%
    05:00 -2°C° 0 mm 4 mps 719 mmHg 82%
    06:00 -2°C° 0 mm 4 mps 719 mmHg 80%
    07:00 -3°C° 0 mm 4 mps 720 mmHg 79%
    08:00 -2°C° 0 mm 5 mps 720 mmHg 75%
    09:00 -1°C° 0 mm 5 mps 720 mmHg 70%
    10:00 -1°C° 0 mm 6 mps 720 mmHg 65%
    11:00 -1°C° 0 mm 7 mps 720 mmHg 69%
    12:00 -1°C° 0 mm 7 mps 720 mmHg 72%
    13:00 -1°C° 0 mm 7 mps 720 mmHg 75%
    14:00 -1°C° 0 mm 7 mps 720 mmHg 74%
    15:00 -1°C° 0 mm 6 mps 721 mmHg 74%
    16:00 -2°C° 0 mm 6 mps 721 mmHg 73%
    17:00 -2°C° 0 mm 6 mps 721 mmHg 76%
    18:00 -1°C° 0 mm 5 mps 722 mmHg 78%
    19:00 -2°C° 0 mm 5 mps 722 mmHg 81%
    20:00 -2°C° 0 mm 4 mps 723 mmHg 82%
    21:00 -2°C° 0 mm 4 mps 723 mmHg 83%
    22:00 -2°C° 0 mm 4 mps 723 mmHg 85%
    23:00 -2°C° 0.1 mm 4 mps 724 mmHg 87%

    Day after tomorrow, 30 January, Thursday

    Time Temperature Precipitation Wind Pressure Humidity
    00:00 -2°C° 0.1 mm 4 mps 724 mmHg 89%
    01:00 -2°C° 0.1 mm 5 mps 724 mmHg 91%
    02:00 -2°C° 0.4 mm 5 mps 725 mmHg 92%
    03:00 -2°C° 0.4 mm 5 mps 725 mmHg 94%
    04:00 -2°C° 0.4 mm 5 mps 726 mmHg 95%
    05:00 -2°C° 0.2 mm 5 mps 726 mmHg 94%
    06:00 -2°C° 0.2 mm 5 mps 727 mmHg 92%
    07:00 -2°C° 0.2 mm 5 mps 727 mmHg 91%
    08:00 -2°C° 0 mm 5 mps 728 mmHg 84%
    09:00 -1°C° 0 mm 5 mps 728 mmHg 78%
    10:00 -1°C° 0 mm 5 mps 728 mmHg 71%
    11:00 0°C° 0 mm 4 mps 728 mmHg 69%
    12:00 0°C° 0 mm 4 mps 728 mmHg 66%
    13:00 +1°C° 0 mm 4 mps 727 mmHg 64%
    14:00 +1°C° 0 mm 3 mps 727 mmHg 67%
    15:00 +1°C° 0 mm 3 mps 727 mmHg 71%
    16:00 +1°C° 0 mm 2 mps 727 mmHg 74%
    17:00 +1°C° 0 mm 2 mps 726 mmHg 75%
    18:00 0°C° 0 mm 3 mps 726 mmHg 76%
    19:00 0°C° 0 mm 3 mps 726 mmHg 77%
    20:00 0°C° 0 mm 3 mps 726 mmHg 78%
    21:00 0°C° 0 mm 3 mps 726 mmHg 80%
    22:00 0°C° 0 mm 3 mps 725 mmHg 81%
    23:00 0°C° 0 mm 3 mps 725 mmHg 81%

    31 January, Friday

    Time Temperature Precipitation Wind Pressure Humidity
    00:00 0°C° 0 mm 3 mps 724 mmHg 82%
    01:00 -1°C° 0 mm 2 mps 724 mmHg 83%
    02:00 0°C° 0 mm 3 mps 723 mmHg 81%
    03:00 0°C° 0 mm 3 mps 723 mmHg 80%
    04:00 0°C° 0 mm 3 mps 722 mmHg 78%
    05:00 0°C° 0.3 mm 3 mps 722 mmHg 81%
    06:00 +1°C° 0.3 mm 3 mps 721 mmHg 84%
    07:00 +1°C° 0.3 mm 3 mps 721 mmHg 87%
    08:00 +2°C° 0.3 mm 3 mps 721 mmHg 89%
    09:00 +3°C° 0.3 mm 3 mps 721 mmHg 90%
    10:00 +4°C° 0.3 mm 3 mps 721 mmHg 91%
    11:00 +4°C° 0.5 mm 4 mps 721 mmHg 90%
    12:00 +5°C° 0.5 mm 4 mps 721 mmHg 89%
    13:00 +5°C° 0.5 mm 5 mps 721 mmHg 89%
    14:00 +5°C° 0.1 mm 5 mps 721 mmHg 87%
    15:00 +5°C° 0.1 mm 5 mps 721 mmHg 86%
    16:00 +5°C° 0.1 mm 5 mps 721 mmHg 85%
    17:00 +5°C° 0 mm 5 mps 722 mmHg 84%
    18:00 +4°C° 0 mm 6 mps 723 mmHg 84%
    19:00 +4°C° 0 mm 6 mps 723 mmHg 84%
    20:00 +5°C° 0 mm 5 mps 724 mmHg 84%
    21:00 +5°C° 0 mm 5 mps 724 mmHg 84%
    22:00 +5°C° 0 mm 5 mps 724 mmHg 84%
    23:00 +5°C° 0 mm 4 mps 724 mmHg 85%

    1 February, Saturday

    Time Temperature Precipitation Wind Pressure Humidity
    00:00 +4°C° 0 mm 4 mps 725 mmHg 86%
    01:00 +4°C° 0 mm 3 mps 725 mmHg 87%
    02:00 +4°C° 0 mm 3 mps 725 mmHg 88%
    03:00 +4°C° 0 mm 3 mps 725 mmHg 89%
    04:00 +4°C° 0 mm 3 mps 725 mmHg 89%
    05:00 +5°C° 0.1 mm 2 mps 725 mmHg 90%
    06:00 +5°C° 0.1 mm 2 mps 725 mmHg 90%
    07:00 +5°C° 0.1 mm 2 mps 725 mmHg 91%
    08:00 +5°C° 0.1 mm 2 mps 725 mmHg 90%
    09:00 +6°C° 0.1 mm 2 mps 725 mmHg 88%
    10:00 +7°C° 0.1 mm 2 mps 725 mmHg 87%
    11:00 +7°C° 0 mm 3 mps 725 mmHg 85%
    12:00 +8°C° 0 mm 3 mps 725 mmHg 84%
    13:00 +9°C° 0 mm 3 mps 725 mmHg 82%
    14:00 +8°C° 0.1 mm 3 mps 724 mmHg 84%
    15:00 +8°C° 0.1 mm 3 mps 724 mmHg 87%
    16:00 +7°C° 0.1 mm 3 mps 724 mmHg 89%
    17:00 +7°C° 0.1 mm 3 mps 724 mmHg 88%
    18:00 +7°C° 0.1 mm 3 mps 724 mmHg 88%
    19:00 +7°C° 0.1 mm 3 mps 724 mmHg 87%
    20:00 +7°C° 0.2 mm 3 mps 723 mmHg 88%
    21:00 +7°C° 0.2 mm 3 mps 723 mmHg 89%
    22:00 +7°C° 0.2 mm 3 mps 723 mmHg 89%
    23:00 +7°C° 0.4 mm 3 mps 723 mmHg 89%

    2 February, Sunday

    Time Temperature Precipitation Wind Pressure Humidity
    00:00 +6°C° 0.4 mm 4 mps 723 mmHg 88%
    01:00 +6°C° 0.4 mm 4 mps 723 mmHg 88%
    02:00 +6°C° 0.9 mm 5 mps 723 mmHg 89%
    03:00 +4°C° 0.9 mm 6 mps 724 mmHg 91%
    04:00 +4°C° 0.9 mm 7 mps 724 mmHg 92%
    05:00 +3°C° 0.4 mm 7 mps 725 mmHg 86%
    06:00 +2°C° 0.4 mm 7 mps 726 mmHg 81%
    07:00 +2°C° 0.4 mm 7 mps 727 mmHg 75%
    08:00 +2°C° 0 mm 7 mps 728 mmHg 74%
    09:00 +2°C° 0 mm 7 mps 728 mmHg 73%
    10:00 +3°C° 0 mm 7 mps 729 mmHg 72%
    11:00 +3°C° 0 mm 6 mps 729 mmHg 71%
    12:00 +4°C° 0 mm 6 mps 729 mmHg 69%
    13:00 +4°C° 0 mm 6 mps 729 mmHg 68%
    14:00 +5°C° 0 mm 5 mps 728 mmHg 70%
    15:00 +4°C° 0 mm 4 mps 728 mmHg 73%
    16:00 +4°C° 0 mm 3 mps 728 mmHg 75%
    17:00 +3°C° 0 mm 3 mps 728 mmHg 76%
    18:00 +3°C° 0 mm 3 mps 727 mmHg 76%
    19:00 +3°C° 0 mm 3 mps 727 mmHg 77%
    20:00 +4°C° 0.1 mm 3 mps 726 mmHg 78%
    21:00 +4°C° 0.1 mm 4 mps 726 mmHg 80%
    22:00 +5°C° 0.1 mm 4 mps 725 mmHg 82%
    23:00 +6°C° 0.2 mm 4 mps 725 mmHg 84%
    Show more